[[{"header":{"parameterUnit":"m.s-1","parameterCategory":1,"la1":30.2991,"la2":30.254,"lo1":-89.0895,"lo2":-89.0444,"dy":0.0017,"dx":0.0017,"nx":28,"ny":28,"refTime":"2024-10-16T09:00:00:Z","depth":0,"parameterNumber":2,"parameterNumberName":"U-component_of_WINDS"},"data":[0,0,0,0,0,0,0,0,0,0,0,0,0,0,0,0,0,0,0,0,0,0,0,0,0,0,0,0,0,0,0,0,0,0,0,0,0,0,0,0,0,0,0,0,0,0,0,0,0,0,0,0,0,0,0,0,0,0,-4.8272,-4.8272,0,-4.8307,-4.8307,-4.8308,-4.8178,-4.8174,-4.817,-4.8166,-4.8205,-4.8209,-4.8214,0,0,0,0,0,0,0,0,0,0,0,0,0,-4.8094,-4.8098,-4.8272,-4.8272,-4.8273,-4.8307,-4.8307,-4.8308,-4.8179,-4.8174,-4.8169,-4.8165,-4.8203,-4.8209,-4.8214,0,0,0,0,0,0,0,0,0,0,0,0,0,-4.8155,-4.8099,-4.8272,-4.8212,-4.8207,-4.8307,-4.8307,-4.8308,-4.818,-4.8174,-4.8168,-4.8162,-4.8202,-4.8208,-4.8215,-4.8374,0,0,-4.8236,-4.8239,0,0,0,0,0,0,0,0,-4.8151,-4.8161,-4.8221,-4.8217,-4.8211,-4.8232,-4.8258,-4.833,-4.8181,-4.819,-4.8166,-4.816,-4.8219,-4.8224,-4.8243,-4.8376,-4.8378,-4.8237,-4.8241,-4.8244,-4.8246,0,0,0,0,0,0,0,-4.8147,-4.8159,-4.8286,-4.8222,-4.8216,-4.8184,-4.8186,-4.8271,-4.8237,-4.8189,-4.818,-4.8185,-4.8215,-4.8237,-4.8243,-4.8378,-4.8237,-4.8243,-4.8247,-4.825,-4.8642,-4.8648,0,0,0,0,0,0,-4.8151,-4.8156,-4.8284,-4.8287,-4.8166,-4.8192,-4.8194,-4.8231,-4.8235,-4.823,-4.819,-4.8179,-4.8228,-4.8235,-4.8244,-4.843,-4.8244,-4.8251,-4.8255,-4.8636,-4.8643,-4.865,0,0,0,0,0,0,-4.8147,-4.8163,-4.8283,-4.8219,-4.8232,-4.8201,-4.8244,-4.8235,-4.8257,-4.8236,-4.823,-4.8219,-4.8224,-4.8234,-4.8342,-4.843,-4.8254,-4.826,-4.8628,-4.8638,-4.8647,-4.8805,0,0,0,0,0,0,-4.8143,-4.8163,-4.8223,-4.8221,-4.8236,-4.8381,-4.8249,-4.824,-4.8269,-4.8254,-4.8262,-4.8257,-4.822,-4.8333,-4.8349,-4.8436,-4.8266,-4.8621,-4.8633,-4.8644,-4.8792,-4.8819,-4.8842,0,0,0,0,0,-4.8137,-4.8267,-4.8227,-4.8243,-4.831,-4.8387,-4.8395,-4.8349,-4.8276,-4.8337,-4.8323,-4.8257,-4.8417,-4.8345,-4.8363,-4.8453,-4.8615,-4.8629,-4.8643,-4.8781,-4.8813,-4.8841,0,0,0,0,0,0,-4.8282,-4.8266,-4.8221,-4.8354,-4.8373,-4.8364,-4.8439,-4.8385,-4.8425,-4.841,-4.8351,-4.8354,-4.8473,-4.8473,-4.8393,-4.8606,-4.8504,-4.8522,-4.8602,-4.8633,-4.8658,-4.8656,-4.8271,0,0,0,0,0,-4.8329,-4.8392,-4.8374,-4.8494,-4.8505,-4.8471,-4.8502,-4.8465,-4.8482,-4.8489,-4.8484,-4.8503,-4.8557,-4.8595,-4.8644,-4.879,-4.879,-4.8861,-4.8886,-4.8906,-4.8924,-4.9,-4.9032,-4.8696,-4.8696,-4.8696,0,0,-4.8428,-4.8427,-4.847,-4.8523,-4.8532,-4.8599,-4.8478,-4.8554,-4.8603,-4.8501,-4.8603,-4.8599,-4.8617,-4.8745,-4.8801,-4.8749,-4.9016,-4.8924,-4.8941,-4.8947,-4.9018,-4.905,-4.9078,-4.8706,-4.8704,-4.8703,0,0,-4.8642,-4.8647,-4.8747,-4.8758,-4.8774,-4.875,-4.8774,-4.8774,-4.8767,-4.8868,-4.8792,-4.8849,-4.8944,-4.896,-4.898,-4.9198,-4.9139,-4.9215,-4.9346,-4.9422,-4.9448,-4.9471,-4.955,-4.9578,-4.9232,-4.9232,-4.9233,0,-4.8763,-4.886,-4.8805,-4.8886,-4.8911,-4.882,-4.892,-4.8934,-4.8966,-4.8986,-4.8926,-4.9043,-4.9048,-4.9179,-4.9231,-4.9251,-4.9277,-4.9216,-4.9449,-4.9471,-4.9492,-4.9566,-4.9596,-4.9242,-4.9241,-4.924,-4.9239,0,-4.9008,-4.9077,-4.9155,-4.9187,-4.922,-4.9311,-4.927,-4.9311,-4.927,-4.9252,-4.9355,-4.9358,-4.9406,-4.9433,-4.9395,-4.9558,-4.9525,-4.9458,-4.9354,-4.9534,-4.9603,-4.9631,-4.9255,-4.9252,-4.9249,-4.9247,0,0,-4.9318,-4.9316,-4.9346,-4.9358,-4.9367,-4.942,-4.9505,-4.955,-4.9587,-4.9611,-4.9682,-4.9763,-4.9701,-4.9724,-4.9685,-4.9752,-4.9924,-4.9676,-4.9676,-4.9723,-5.0105,-5.0156,-5.019,-4.9884,-4.9889,-4.9893,-5.0103,0,-4.9529,-4.9675,-4.9627,-4.9776,-4.9838,-4.975,-4.9825,-4.9839,-4.9824,-4.9875,-4.9858,-4.9917,-4.983,-4.9843,-4.9904,-4.989,-5.0,-4.9874,-4.995,-4.9954,-4.995,-5.0226,-5.0281,-5.048,-5.013,-5.0134,-5.0137,0,-4.9796,-4.9829,-4.9984,-4.9981,-5.0005,-5.0073,-5.011,-5.0159,-5.0173,-5.0157,-5.0182,-5.0129,-5.0213,-5.0106,-5.0221,-5.0137,-5.0164,-5.0162,-5.0168,-5.0175,-5.0058,-5.0242,-5.0542,-5.0572,-5.0179,-5.0176,-5.0173,0,-5.0008,-5.0091,-5.0193,-5.0207,-5.0206,-5.0256,-5.0258,-5.0265,-5.0295,-5.0327,-5.0346,-5.0388,-5.0412,-5.0445,-5.0405,-5.0331,-5.0526,-5.0416,-5.0516,-5.0517,-5.0563,-5.0561,-5.0874,-5.0578,-5.0578,-5.0577,-5.0577,0,-5.025,-5.0348,-5.0288,-5.0352,-5.0459,-5.0402,-5.051,-5.0502,-5.0509,-5.057,-5.0496,-5.0554,-5.0496,-5.055,-5.0518,-5.0618,-5.0629,-5.0619,-5.061,-5.0627,-5.0629,-5.0646,-5.0632,-5.0585,-5.0584,-5.0582,-5.0581,0,-5.0506,-5.047,-5.0576,-5.0565,-5.0565,-5.0645,-5.0635,-5.0694,-5.0672,-5.075,-5.0765,-5.0731,-5.079,-5.0752,-5.0812,-5.079,-5.0921,-5.0892,-5.0917,-5.091,-5.1012,-5.1004,-5.1349,-5.1391,-5.1067,-5.107,-5.1073,0,-5.0664,-5.0737,-5.0734,-5.0768,-5.0775,-5.0832,-5.0861,-5.0807,-5.0841,-5.086,-5.0917,-5.0968,-5.1007,-5.1105,-5.1086,-5.1131,-5.1103,-5.1221,-5.111,-5.1124,-5.1107,-5.1104,-5.1111,-5.1244,-5.1248,-5.1251,-5.1254,0,-5.0948,-5.0926,-5.0971,-5.101,-5.1047,-5.1075,-5.1097,-5.113,-5.1075,-5.1117,-5.1175,-5.1205,-5.1264,-5.1317,-5.1354,-5.1356,-5.1297,-5.1288,-5.1314,-5.1333,-5.1345,-5.1341,-5.098,-5.1281,-5.1279,-5.1277,-5.1275,-5.1274,-5.1161,-5.1222,-5.1229,-5.1281,-5.1291,-5.1313,-5.1367,-5.1351,-5.1398,-5.1442,-5.1407,-5.1477,-5.1486,-5.1529,-5.1538,-5.1592,-5.1544,-5.1581,-5.1591,-5.1601,-5.1616,-5.1335,-5.1598,-5.1597,-5.1597,-5.1596,-5.1595,0,-5.1443,-5.1442,-5.1491,-5.1523,-5.1564,-5.1502,-5.1522,-5.1561,-5.1623,-5.1636,-5.1675,-5.1742,-5.1792,-5.1776,-5.182,-5.1866,-5.184,-5.188,-5.1877,-5.1879,-5.1656,-5.163,-5.19,-5.19,-5.19,-5.19,-5.19,-5.19,-5.1595,-5.1694,-5.1673,-5.1776,-5.1774,-5.1841,-5.1858,-5.1878,-5.1888,-5.1965,-5.2006,-5.1994,-5.1996,-5.2039,-5.2082,-5.2076,-5.2097,-5.2147,-5.2131,-5.1924,-5.1894,-5.1866,-5.1841,-5.2151,-5.2152,-5.2349,-5.2351,-5.2353]},{"header":{"parameterUnit":"m.s-1","parameterCategory":1,"la1":30.2991,"la2":30.254,"lo1":-89.0895,"lo2":-89.0444,"dy":0.0017,"dx":0.0017,"nx":28,"ny":28,"refTime":"2024-10-16T09:00:00:Z","depth":0,"parameterNumber":3,"parameterNumberName":"V-component_of_WINDS"},"data":[0,0,0,0,0,0,0,0,0,0,0,0,0,0,0,0,0,0,0,0,0,0,0,0,0,0,0,0,0,0,0,0,0,0,0,0,0,0,0,0,0,0,0,0,0,0,0,0,0,0,0,0,0,0,0,0,0,0,-9.6442,-9.6443,0,-9.645,-9.645,-9.645,-9.6246,-9.6241,-9.6235,-9.623,-9.6236,-9.6241,-9.6246,0,0,0,0,0,0,0,0,0,0,0,0,0,-9.625,-9.6254,-9.6442,-9.6443,-9.6443,-9.645,-9.645,-9.645,-9.6247,-9.624,-9.6234,-9.6228,-9.6234,-9.624,-9.6247,0,0,0,0,0,0,0,0,0,0,0,0,0,-9.6303,-9.6256,-9.6442,-9.6342,-9.6333,-9.645,-9.645,-9.645,-9.6249,-9.624,-9.6232,-9.6225,-9.6232,-9.624,-9.6248,-9.646,0,0,-9.6272,-9.6275,0,0,0,0,0,0,0,0,-9.63,-9.631,-9.6357,-9.6349,-9.634,-9.6339,-9.6384,-9.6453,-9.6251,-9.6281,-9.623,-9.6221,-9.6277,-9.628,-9.63,-9.646,-9.646,-9.6272,-9.6277,-9.628,-9.6283,0,0,0,0,0,0,0,-9.6297,-9.6309,-9.6445,-9.6358,-9.6347,-9.6296,-9.6295,-9.6396,-9.6324,-9.6277,-9.6263,-9.6266,-9.627,-9.6293,-9.6298,-9.646,-9.6272,-9.6279,-9.6284,-9.6287,-9.6794,-9.6802,0,0,0,0,0,0,-9.6307,-9.6307,-9.6445,-9.6445,-9.63,-9.6306,-9.6305,-9.6347,-9.6323,-9.6311,-9.6273,-9.6257,-9.6283,-9.6289,-9.6298,-9.6544,-9.628,-9.6288,-9.6292,-9.6785,-9.6796,-9.6805,0,0,0,0,0,0,-9.6304,-9.6321,-9.6445,-9.6372,-9.6384,-9.6318,-9.6368,-9.6352,-9.6374,-9.632,-9.6306,-9.631,-9.6277,-9.6287,-9.6421,-9.6541,-9.6291,-9.6298,-9.6775,-9.6788,-9.68,-9.7039,0,0,0,0,0,0,-9.6299,-9.6321,-9.6402,-9.6376,-9.6389,-9.6569,-9.6375,-9.6358,-9.6388,-9.6366,-9.635,-9.6339,-9.6271,-9.641,-9.6429,-9.6547,-9.6304,-9.6764,-9.6781,-9.6796,-9.702,-9.7058,-9.7091,0,0,0,0,0,-9.6293,-9.6469,-9.6407,-9.6425,-9.6488,-9.6577,-9.6584,-9.6503,-9.6399,-9.6478,-9.6444,-9.634,-9.6525,-9.6426,-9.6445,-9.6568,-9.6756,-9.6776,-9.6795,-9.7004,-9.7051,-9.709,0,0,0,0,0,0,-9.651,-9.6463,-9.6395,-9.6567,-9.6578,-9.6542,-9.664,-9.6555,-9.6595,-9.6573,-9.647,-9.6468,-9.6619,-9.6606,-9.6496,-9.6771,-9.6622,-9.6646,-9.6774,-9.6818,-9.6853,-9.6853,-9.6311,0,0,0,0,0,-9.6578,-9.6655,-9.6609,-9.6765,-9.6774,-9.6707,-9.6743,-9.6679,-9.6685,-9.6688,-9.6663,-9.6673,-9.6733,-9.6775,-9.6827,-9.7017,-9.701,-9.7111,-9.7147,-9.7176,-9.7199,-9.7298,-9.7342,-9.687,-9.687,-9.6869,0,0,-9.6719,-9.6703,-9.6758,-9.6809,-9.6809,-9.689,-9.6712,-9.6805,-9.6863,-9.6702,-9.6827,-9.681,-9.6813,-9.6977,-9.7047,-9.6971,-9.7327,-9.7201,-9.7225,-9.7231,-9.7323,-9.7367,-9.7407,-9.6883,-9.6881,-9.6879,0,0,-9.7018,-9.7014,-9.7143,-9.7148,-9.7151,-9.7105,-9.7136,-9.7114,-9.7096,-9.722,-9.7101,-9.7169,-9.7275,-9.7282,-9.73,-9.7601,-9.7507,-9.7621,-9.7808,-9.7906,-9.7943,-9.7976,-9.8083,-9.8123,-9.7644,-9.7644,-9.7645,0,-9.7193,-9.731,-9.722,-9.7322,-9.7347,-9.7206,-9.7336,-9.7344,-9.7364,-9.7385,-9.7299,-9.7429,-9.7422,-9.7584,-9.7658,-9.7677,-9.7709,-9.7623,-9.7945,-9.7977,-9.8006,-9.8107,-9.8148,-9.7658,-9.7656,-9.7655,-9.7654,0,-9.7525,-9.7608,-9.7712,-9.7736,-9.7773,-9.7889,-9.7816,-9.7864,-9.7798,-9.7761,-9.7889,-9.7875,-9.7922,-9.7956,-9.7892,-9.811,-9.8063,-9.7963,-9.7811,-9.8066,-9.816,-9.8198,-9.7678,-9.7673,-9.7669,-9.7665,0,0,-9.796,-9.7933,-9.7973,-9.7982,-9.7975,-9.8037,-9.8146,-9.8192,-9.8236,-9.8254,-9.8343,-9.8436,-9.8343,-9.8364,-9.8299,-9.8385,-9.8625,-9.8274,-9.8273,-9.834,-9.8864,-9.894,-9.8986,-9.8562,-9.8569,-9.8575,-9.8864,0,-9.825,-9.8435,-9.8357,-9.8549,-9.8624,-9.849,-9.8584,-9.859,-9.8559,-9.8618,-9.8582,-9.865,-9.8523,-9.8534,-9.8613,-9.8579,-9.8729,-9.8557,-9.8643,-9.8647,-9.8647,-9.9035,-9.9114,-9.9388,-9.89,-9.8906,-9.891,0,-9.8613,-9.8647,-9.8847,-9.8826,-9.8855,-9.8942,-9.8977,-9.9036,-9.9039,-9.901,-9.9034,-9.8949,-9.9053,-9.8902,-9.9044,-9.8929,-9.8959,-9.8948,-9.8957,-9.8962,-9.8795,-9.905,-9.9473,-9.9515,-9.8967,-9.8963,-9.8958,0,-9.8911,-9.9007,-9.9138,-9.915,-9.9129,-9.9193,-9.9188,-9.9183,-9.9216,-9.9247,-9.9267,-9.9311,-9.9335,-9.937,-9.9299,-9.9196,-9.9451,-9.9294,-9.943,-9.9432,-9.949,-9.9487,-9.9924,-9.951,-9.9509,-9.9509,-9.9508,0,-9.9242,-9.937,-9.9272,-9.9353,-9.9492,-9.9401,-9.954,-9.9519,-9.9516,-9.9591,-9.9477,-9.9549,-9.9451,-9.9514,-9.9459,-9.9585,-9.9597,-9.9576,-9.956,-9.9586,-9.9589,-9.9605,-9.9584,-9.9519,-9.9517,-9.9515,-9.9513,0,-9.9599,-9.9538,-9.9673,-9.9643,-9.9638,-9.9741,-9.9714,-9.9788,-9.9748,-9.9844,-9.9861,-9.9799,-9.9866,-9.9799,-9.9863,-9.9826,-9.9995,-9.9951,-9.9995,-9.9982,-10.0122,-10.011,-10.0584,-10.0642,-10.0191,-10.0195,-10.0199,0,-9.9815,-9.991,-9.989,-9.9931,-9.9933,-10.0002,-10.0035,-9.9948,-9.9987,-9.9999,-10.0071,-10.0129,-10.0171,-10.0285,-10.0245,-10.0293,-10.0249,-10.0412,-10.0256,-10.028,-10.0252,-10.0248,-10.0257,-10.0445,-10.045,-10.0454,-10.0458,0,-10.0204,-10.017,-10.0222,-10.0265,-10.0308,-10.0337,-10.0357,-10.0398,-10.0308,-10.0358,-10.0426,-10.0459,-10.0523,-10.0582,-10.0618,-10.0611,-10.0521,-10.0507,-10.0541,-10.0569,-10.0591,-10.0581,-10.0082,-10.0497,-10.0493,-10.049,-10.0488,-10.0486,-10.0497,-10.0575,-10.0573,-10.0635,-10.0641,-10.0663,-10.073,-10.0699,-10.0755,-10.0801,-10.0746,-10.083,-10.083,-10.0869,-10.0873,-10.0937,-10.0868,-10.0917,-10.0929,-10.0943,-10.0964,-10.0581,-10.0943,-10.0941,-10.094,-10.0939,-10.0938,0,-10.0881,-10.0873,-10.0931,-10.0963,-10.1012,-10.0922,-10.094,-10.0987,-10.1062,-10.107,-10.1114,-10.1192,-10.1248,-10.1214,-10.1262,-10.132,-10.1279,-10.1335,-10.133,-10.133,-10.1022,-10.0988,-10.1367,-10.1367,-10.1367,-10.1367,-10.1367,-10.1367,-10.1086,-10.1214,-10.1179,-10.1308,-10.1298,-10.138,-10.1398,-10.1417,-10.1423,-10.1515,-10.1562,-10.1539,-10.153,-10.1576,-10.1624,-10.1612,-10.1636,-10.1707,-10.1681,-10.1394,-10.1352,-10.1312,-10.1279,-10.1713,-10.1713,-10.1982,-10.1985,-10.1987]}]]